This is the latest recevied weather packets stored in our database for station/object WA1TYB-13. If no packets are shown the sender has not sent any weather packets the latest 10 day(s).
| Time | Temp. | Humidity | Pressure | Rain* | Wind** | Luminosity | Snow |
|---|---|---|---|---|---|---|---|
| 1778034463 | 6.11° C | 46% | 1020.7 hPa | 0 mm | - | 8 W/m² | - |
| 1778034161 | 6.67° C | 45% | 1020.6 hPa | 0 mm | - | 12 W/m² | - |
| 1778033859 | 6.67° C | 44% | 1020.6 hPa | 0 mm | - | 17 W/m² | - |
| 1778033555 | 7.22° C | 42% | 1020.6 hPa | 0 mm | - | 23 W/m² | - |
| 1778033252 | 7.22° C | 42% | 1020.2 hPa | 0 mm | - | 24 W/m² | - |
| 1778032950 | 7.22° C | 42% | 1020.2 hPa | 0 mm | - | 29 W/m² | - |
| 1778032647 | 7.78° C | 42% | 1020 hPa | 0 mm | - | 33 W/m² | - |
| 1778032345 | 7.22° C | 42% | 1020.4 hPa | 0 mm | - | 42 W/m² | - |
| 1778032041 | 7.78° C | 41% | 1020.2 hPa | 0 mm | - | 44 W/m² | - |
| 1778031737 | 7.78° C | 42% | 1020.3 hPa | 0 mm | - | 53 W/m² | - |
| 1778031435 | 7.78° C | 43% | 1020.4 hPa | 0 mm | - | 58 W/m² | - |
| 1778031132 | 7.78° C | 43% | 1020.2 hPa | 0 mm | - | 86 W/m² | - |
| 1778030828 | 7.78° C | 42% | 1020.5 hPa | 0 mm | - | 67 W/m² | - |
| 1778030526 | 7.22° C | 43% | 1020.3 hPa | 0 mm | - | 84 W/m² | - |
| 1778030223 | 7.22° C | 40% | 1020.3 hPa | 0 mm | - | 58 W/m² | - |
| 1778029918 | 7.78° C | 38% | 1020.3 hPa | 0 mm | - | 46 W/m² | - |
| 1778029618 | 7.22° C | 40% | 1020.2 hPa | 0 mm | - | 42 W/m² | - |
| 1778029314 | 7.78° C | 41% | 1020.2 hPa | 0 mm | - | 43 W/m² | - |
| 1778029011 | 7.78° C | 40% | 1020 hPa | 0 mm | - | 51 W/m² | - |
| 1778028708 | 7.78° C | 41% | 1019.9 hPa | 0 mm | - | 61 W/m² | - |
| 1778028404 | 7.78° C | 41% | 1019.8 hPa | 0 mm | - | 65 W/m² | - |
| 1778028101 | 7.78° C | 38% | 1020 hPa | 0 mm | - | 89 W/m² | - |
| 1778027797 | 7.78° C | 43% | 1019.8 hPa | 0 mm | - | 78 W/m² | - |
| 1778027494 | 8.89° C | 41% | 1020.2 hPa | 0 mm | - | 109 W/m² | - |
| 1778027190 | 8.89° C | 39% | 1019.7 hPa | 0 mm | - | 171 W/m² | - |
* Rain latest hour (hover to see other rain measurements)
** Current wind speed in m/s (hover to see current wind gust speed)